| time (UTC) | temp C | wind direction | speed KPH | gust KPH | rain 1hr cm | rain 24hr cm | rain mn cm | humidity % | barometer mb |
| 20260510142743 | 12 | 68 | 1.6 | 3.2 | 0.00 | 0.00 | 0.00 | 79 | 1014.4 |
| 20260510142240 | 12 | 73 | 0.0 | 3.2 | 0.00 | 0.00 | 0.00 | 79 | 1014.4 |
| 20260510141737 | 12 | 299 | 3.2 | 4.8 | 0.00 | 0.00 | 0.00 | 80 | 1014.2 |
| 20260510141235 | 12 | 138 | 0.0 | 1.6 | 0.00 | 0.00 | 0.00 | 80 | 1014.1 |
| 20260510140731 | 12 | 157 | 1.6 | 1.6 | 0.00 | 0.00 | 0.00 | 80 | 1014.2 |
| 20260510140226 | 12 | 66 | 0.0 | 3.2 | 0.00 | 0.00 | 0.00 | 81 | 1014.2 |
| 20260510135720 | 12 | 251 | 4.8 | 4.8 | 0.00 | 0.00 | 0.00 | 82 | 1014.0 |
| 20260510135216 | 11 | 140 | 0.0 | 3.2 | 0.00 | 0.00 | 0.00 | 82 | 1014.1 |
| 20260510134714 | 11 | 108 | 0.0 | 3.2 | 0.00 | 0.00 | 0.00 | 81 | 1013.9 |
| 20260510134211 | 12 | 81 | 0.0 | 1.6 | 0.00 | 0.00 | 0.00 | 82 | 1014.1 |
| 20260510133707 | 11 | 117 | 0.0 | 3.2 | 0.00 | 0.00 | 0.00 | 82 | 1013.7 |
| 20260510133202 | 11 | 55 | 0.0 | 3.2 | 0.00 | 0.00 | 0.00 | 82 | 1013.8 |
| 20260510132659 | 11 | 110 | 0.0 | 3.2 | 0.00 | 0.00 | 0.00 | 82 | 1013.9 |
| 20260510132156 | 11 | 27 | 1.6 | 3.2 | 0.00 | 0.00 | 0.00 | 81 | 1014.1 |
| 20260510131654 | 11 | 87 | 1.6 | 1.6 | 0.00 | 0.00 | 0.00 | 81 | 1013.9 |
| 20260510131151 | 12 | 144 | 3.2 | 9.7 | 0.00 | 0.00 | 0.00 | 81 | 1013.7 |
| 20260510130647 | 12 | 201 | 3.2 | 3.2 | 0.00 | 0.00 | 0.00 | 82 | 1013.9 |
| 20260510130145 | 12 | 72 | 0.0 | 1.6 | 0.00 | 0.00 | 0.00 | 83 | 1013.7 |
| 20260510125641 | 12 | 136 | 1.6 | 1.6 | 0.00 | 0.00 | 0.00 | 84 | 1013.8 |
| 20260510125137 | 12 | 130 | 0.0 | 3.2 | 0.00 | 0.00 | 0.00 | 84 | 1013.5 |
| 20260510124635 | 12 | 186 | 1.6 | 1.6 | 0.00 | 0.00 | 0.00 | 84 | 1013.6 |
| 20260510124131 | 12 | 92 | 0.0 | 0.0 | 0.00 | 0.00 | 0.00 | 84 | 1013.5 |
| 20260510123627 | 12 | 92 | 0.0 | 1.6 | 0.00 | 0.00 | 0.00 | 85 | 1013.6 |
| 20260510123123 | 12 | 148 | 3.2 | 3.2 | 0.00 | 0.00 | 0.00 | 85 | 1013.6 |
| 20260510122619 | 12 | 139 | 0.0 | 0.0 | 0.00 | 0.00 | 0.00 | 86 | 1013.3 |
| 20260510122115 | 12 | 152 | 0.0 | 1.6 | 0.00 | 0.00 | 0.00 | 87 | 1013.4 |
| 20260510121612 | 12 | 193 | 1.6 | 3.2 | 0.00 | 0.00 | 0.00 | 88 | 1013.4 |
| 20260510121109 | 12 | 113 | 0.0 | 1.6 | 0.00 | 0.00 | 0.00 | 88 | 1013.1 |
| 20260510120607 | 11 | 153 | 1.6 | 1.6 | 0.00 | 0.00 | 0.00 | 88 | 1013.0 |
| 20260510115559 | 12 | 154 | 0.0 | 0.0 | 0.00 | 0.00 | 0.00 | 89 | 1012.8 |
| 20260510115056 | 11 | 160 | 3.2 | 3.2 | 0.00 | 0.00 | 0.00 | 89 | 1012.6 |
| 20260510114552 | 11 | 136 | 0.0 | 1.6 | 0.00 | 0.00 | 0.00 | 90 | 1012.5 |
| 20260510114048 | 11 | 172 | 1.6 | 3.2 | 0.00 | 0.00 | 0.00 | 91 | 1012.4 |
| 20260510113543 | 11 | 203 | 1.6 | 1.6 | 0.00 | 0.00 | 0.00 | 92 | 1012.8 |
| 20260510113041 | 11 | 213 | 0.0 | 0.0 | 0.00 | 0.00 | 0.00 | 91 | 1012.4 |
| 20260510112538 | 12 | 231 | 1.6 | 3.2 | 0.00 | 0.00 | 0.00 | 91 | 1012.0 |
| 20260510112034 | 11 | 139 | 0.0 | 1.6 | 0.00 | 0.00 | 0.00 | 90 | 1012.0 |
| 20260510111531 | 11 | 197 | 1.6 | 1.6 | 0.00 | 0.00 | 0.00 | 91 | 1012.2 |
| 20260510111027 | 11 | 125 | 0.0 | 0.0 | 0.00 | 0.00 | 0.00 | 91 | 1011.6 |
| 20260510110523 | 11 | 105 | 0.0 | 0.0 | 0.00 | 0.00 | 0.00 | 91 | 1011.8 |
| 20260510110020 | 11 | 135 | 0.0 | 0.0 | 0.00 | 0.00 | 0.00 | 91 | 1011.7 |
| 20260510105515 | 11 | 194 | 1.6 | 1.6 | 0.00 | 0.00 | 0.00 | 92 | 1011.4 |
| 20260510105010 | 11 | 194 | 1.6 | 4.8 | 0.00 | 0.00 | 0.00 | 93 | 1011.7 |
| 20260510104507 | 11 | 232 | 1.6 | 3.2 | 0.00 | 0.00 | 0.00 | 93 | 1011.2 |
| 20260510104003 | 11 | 183 | 0.0 | 0.0 | 0.00 | 0.00 | 0.00 | 92 | 1011.2 |
| 20260510103501 | 11 | 172 | 0.0 | 0.0 | 0.00 | 0.00 | 0.00 | 92 | 1011.1 |
| 20260510102956 | 11 | 153 | 0.0 | 0.0 | 0.00 | 0.00 | 0.00 | 92 | 1010.8 |
| 20260510102452 | 11 | 142 | 0.0 | 0.0 | 0.00 | 0.00 | 0.00 | 92 | 1010.7 |
| 20260510101949 | 11 | 113 | 0.0 | 0.0 | 0.00 | 0.00 | 0.00 | 93 | 1010.5 |
| 20260510101446 | 11 | 132 | 0.0 | 0.0 | 0.00 | 0.00 | 0.00 | 93 | 1010.7 |
| 20260510100945 | 11 | 127 | 0.0 | 0.0 | 0.00 | 0.00 | 0.00 | 93 | 1010.7 |
| 20260510100441 | 11 | 117 | 0.0 | 3.2 | 0.00 | 0.00 | 0.00 | 94 | 1010.5 |
| 20260510095937 | 11 | 123 | 0.0 | 3.2 | 0.00 | 0.00 | 0.00 | 95 | 1010.3 |
| 20260510095432 | 10 | 234 | 3.2 | 3.2 | 0.00 | 0.00 | 0.00 | 95 | 1010.5 |
| 20260510094932 | 10 | 143 | 0.0 | 3.2 | 0.00 | 0.00 | 0.00 | 95 | 1010.4 |
| 20260510094427 | 10 | 203 | 1.6 | 1.6 | 0.00 | 0.00 | 0.00 | 95 | 1010.1 |
| 20260510093923 | 10 | 126 | 0.0 | 0.0 | 0.00 | 0.00 | 0.00 | 95 | 1010.0 |
| 20260510093419 | 10 | 216 | 0.0 | 0.0 | 0.00 | 0.00 | 0.00 | 95 | 1010.2 |
| 20260510092915 | 10 | 214 | 1.6 | 3.2 | 0.00 | 0.00 | 0.00 | 95 | 1009.7 |
| 20260510092413 | 10 | 189 | 1.6 | 3.2 | 0.00 | 0.00 | 0.00 | 95 | 1009.4 |
| 20260510091912 | 10 | 265 | 3.2 | 3.2 | 0.00 | 0.00 | 0.00 | 95 | 1009.5 |
| 20260510091410 | 10 | 199 | 1.6 | 3.2 | 0.00 | 0.00 | 0.00 | 95 | 1009.4 |
| 20260510090907 | 10 | 185 | 1.6 | 1.6 | 0.00 | 0.00 | 0.00 | 95 | 1009.2 |
| 20260510090403 | 10 | 123 | 0.0 | 3.2 | 0.00 | 0.00 | 0.00 | 95 | 1009.1 |
| 20260510085859 | 10 | 254 | 1.6 | 3.2 | 0.00 | 0.00 | 0.00 | 95 | 1009.3 |
| 20260510085354 | 10 | 142 | 0.0 | 1.6 | 0.00 | 0.00 | 0.00 | 95 | 1009.1 |
| 20260510084850 | 10 | 191 | 1.6 | 3.2 | 0.00 | 0.00 | 0.00 | 95 | 1009.0 |
| 20260510084347 | 10 | 213 | 1.6 | 3.2 | 0.00 | 0.00 | 0.00 | 95 | 1009.1 |
| 20260510083844 | 10 | 155 | 0.0 | 1.6 | 0.00 | 0.00 | 0.00 | 95 | 1008.9 |
| 20260510083341 | 10 | 183 | 1.6 | 1.6 | 0.00 | 0.00 | 0.00 | 94 | 1008.7 |
| 20260510082836 | 10 | 130 | 0.0 | 3.2 | 0.00 | 0.00 | 0.00 | 94 | 1008.5 |
| 20260510082333 | 10 | 225 | 1.6 | 3.2 | 0.00 | 0.00 | 0.00 | 94 | 1008.5 |
| 20260510081832 | 10 | 229 | 1.6 | 3.2 | 0.00 | 0.00 | 0.00 | 94 | 1008.4 |
| 20260510081329 | 10 | 163 | 1.6 | 3.2 | 0.00 | 0.00 | 0.00 | 94 | 1008.6 |
| 20260510080825 | 11 | 155 | 1.6 | 3.2 | 0.00 | 0.00 | 0.00 | 94 | 1008.3 |
| 20260510080319 | 11 | 157 | 0.0 | 1.6 | 0.00 | 0.00 | 0.00 | 94 | 1008.0 |
| 20260510075817 | 11 | 167 | 1.6 | 3.2 | 0.00 | 0.00 | 0.00 | 93 | 1008.3 |
| 20260510075314 | 11 | 199 | 1.6 | 3.2 | 0.00 | 0.00 | 0.00 | 93 | 1008.3 |
| 20260510074811 | 11 | 200 | 1.6 | 3.2 | 0.00 | 0.00 | 0.00 | 93 | 1008.2 |
| 20260510074308 | 11 | 240 | 1.6 | 3.2 | 0.00 | 0.00 | 0.00 | 93 | 1008.3 |
| 20260510073804 | 11 | 130 | 1.6 | 3.2 | 0.00 | 0.00 | 0.00 | 93 | 1008.3 |
| 20260510073300 | 11 | 221 | 1.6 | 3.2 | 0.00 | 0.00 | 0.00 | 92 | 1008.1 |
| 20260510072756 | 11 | 193 | 0.0 | 1.6 | 0.00 | 0.00 | 0.00 | 92 | 1008.3 |
| 20260510072253 | 11 | 231 | 1.6 | 3.2 | 0.00 | 0.00 | 0.00 | 92 | 1008.5 |
| 20260510071749 | 11 | 213 | 1.6 | 1.6 | 0.00 | 0.00 | 0.00 | 92 | 1008.5 |
| 20260510071246 | 12 | 126 | 0.0 | 3.2 | 0.00 | 0.00 | 0.00 | 91 | 1008.5 |
| 20260510070745 | 12 | 266 | 1.6 | 3.2 | 0.00 | 0.00 | 0.00 | 91 | 1008.4 |
| 20260510070241 | 12 | 127 | 0.0 | 0.0 | 0.00 | 0.00 | 0.00 | 91 | 1008.4 |
| 20260510065741 | 12 | 168 | 0.0 | 0.0 | 0.00 | 0.00 | 0.00 | 91 | 1008.4 |
| 20260510065238 | 12 | 169 | 0.0 | 3.2 | 0.00 | 0.00 | 0.00 | 91 | 1008.5 |
| 20260510064734 | 12 | 212 | 1.6 | 3.2 | 0.00 | 0.00 | 0.00 | 91 | 1008.5 |
| 20260510064232 | 12 | 232 | 3.2 | 3.2 | 0.00 | 0.00 | 0.00 | 91 | 1008.6 |
| 20260510063728 | 12 | 203 | 1.6 | 4.8 | 0.00 | 0.00 | 0.00 | 91 | 1008.8 |
| 20260510063225 | 12 | 121 | 1.6 | 4.8 | 0.00 | 0.00 | 0.00 | 91 | 1008.4 |
| 20260510062721 | 12 | 214 | 3.2 | 3.2 | 0.00 | 0.00 | 0.00 | 90 | 1008.5 |
| 20260510062217 | 12 | 195 | 1.6 | 3.2 | 0.00 | 0.00 | 0.00 | 90 | 1008.3 |
| 20260510061713 | 12 | 234 | 1.6 | 3.2 | 0.00 | 0.00 | 0.00 | 90 | 1008.4 |
| 20260510061210 | 12 | 212 | 1.6 | 3.2 | 0.00 | 0.00 | 0.00 | 89 | 1008.2 |
| 20260510060706 | 12 | 261 | 3.2 | 4.8 | 0.00 | 0.00 | 0.00 | 89 | 1008.3 |
| 20260510060203 | 12 | 247 | 3.2 | 3.2 | 0.00 | 0.00 | 0.00 | 88 | 1008.3 |
| 20260510055659 | 13 | 232 | 1.6 | 3.2 | 0.00 | 0.00 | 0.00 | 88 | 1008.5 |
| 20260510055157 | 13 | 211 | 1.6 | 3.2 | 0.00 | 0.00 | 0.00 | 88 | 1008.5 |
| 20260510054653 | 13 | 207 | 1.6 | 1.6 | 0.00 | 0.00 | 0.00 | 87 | 1008.4 |
| 20260510054149 | 13 | 166 | 0.0 | 3.2 | 0.00 | 0.00 | 0.00 | 86 | 1008.5 |
| 20260510053648 | 14 | 261 | 3.2 | 3.2 | 0.00 | 0.00 | 0.00 | 84 | 1008.6 |
| 20260510053145 | 15 | 150 | 0.0 | 1.6 | 0.00 | 0.00 | 0.00 | 83 | 1008.6 |
| 20260510052641 | 15 | 341 | 3.2 | 4.8 | 0.00 | 0.00 | 0.00 | 80 | 1008.5 |
| 20260510052137 | 15 | 150 | 3.2 | 9.7 | 0.00 | 0.00 | 0.00 | 81 | 1008.7 |
| 20260510051633 | 15 | 103 | 0.0 | 4.8 | 0.00 | 0.00 | 0.00 | 80 | 1008.6 |
| 20260510051129 | 14 | 170 | 1.6 | 3.2 | 0.00 | 0.00 | 0.00 | 85 | 1008.1 |
| 20260510050627 | 14 | 174 | 1.6 | 3.2 | 0.00 | 0.00 | 0.00 | 84 | 1008.0 |
| 20260510050124 | 14 | 117 | 0.0 | 1.6 | 0.00 | 0.00 | 0.00 | 85 | 1008.1 |
| 20260510045621 | 13 | 210 | 1.6 | 4.8 | 0.00 | 0.00 | 0.00 | 85 | 1008.1 |
| 20260510045117 | 13 | 165 | 0.0 | 3.2 | 0.00 | 0.00 | 0.00 | 86 | 1007.9 |
| 20260510044613 | 13 | 209 | 4.8 | 4.8 | 0.00 | 0.00 | 0.00 | 87 | 1007.9 |
| 20260510044111 | 13 | 217 | 1.6 | 3.2 | 0.00 | 0.00 | 0.00 | 86 | 1008.1 |
| 20260510043606 | 13 | 258 | 1.6 | 3.2 | 0.00 | 0.00 | 0.00 | 87 | 1007.8 |
| 20260510043103 | 12 | 121 | 0.0 | 3.2 | 0.00 | 0.00 | 0.00 | 88 | 1007.9 |
| 20260510042601 | 12 | 185 | 0.0 | 3.2 | 0.00 | 0.00 | 0.00 | 88 | 1007.8 |
| 20260510042057 | 12 | 120 | 1.6 | 1.6 | 0.00 | 0.00 | 0.00 | 87 | 1007.6 |
| 20260510041554 | 12 | 78 | 0.0 | 0.0 | 0.00 | 0.00 | 0.00 | 88 | 1007.6 |
| 20260510041051 | 12 | 171 | 0.0 | 4.8 | 0.00 | 0.00 | 0.00 | 88 | 1007.5 |
| 20260510040548 | 12 | 116 | 0.0 | 1.6 | 0.00 | 0.00 | 0.00 | 88 | 1007.6 |
| 20260510040044 | 12 | 216 | 1.6 | 3.2 | 0.00 | 0.00 | 0.00 | 89 | 1007.4 |
| 20260510035540 | 12 | 173 | 1.6 | 3.2 | 0.00 | 0.18 | 0.18 | 88 | 1007.6 |
| 20260510035040 | 12 | 267 | 0.0 | 1.6 | 0.00 | 0.18 | 0.18 | 89 | 1007.4 |
| 20260510034539 | 12 | 210 | 1.6 | 3.2 | 0.00 | 0.18 | 0.18 | 89 | 1007.4 |
| 20260510034035 | 12 | 198 | 1.6 | 3.2 | 0.00 | 0.18 | 0.18 | 89 | 1007.3 |
| 20260510033531 | 12 | 209 | 1.6 | 1.6 | 0.00 | 0.18 | 0.18 | 89 | 1007.4 |
| 20260510033029 | 12 | 195 | 1.6 | 3.2 | 0.00 | 0.18 | 0.18 | 88 | 1007.3 |
| 20260510032524 | 13 | 210 | 1.6 | 3.2 | 0.00 | 0.18 | 0.18 | 88 | 1007.4 |
| 20260510032020 | 13 | 225 | 1.6 | 3.2 | 0.00 | 0.18 | 0.18 | 88 | 1007.3 |
| 20260510031510 | 13 | 205 | 3.2 | 4.8 | 0.00 | 0.18 | 0.18 | 88 | 1007.2 |
| 20260510031006 | 13 | 173 | 1.6 | 3.2 | 0.00 | 0.18 | 0.18 | 88 | 1007.2 |
| 20260510030502 | 13 | 269 | 1.6 | 3.2 | 0.00 | 0.18 | 0.18 | 87 | 1007.4 |
| 20260510025959 | 13 | 225 | 3.2 | 3.2 | 0.00 | 0.18 | 0.18 | 87 | 1007.5 |
| 20260510025456 | 13 | 263 | 3.2 | 3.2 | 0.00 | 0.18 | 0.18 | 86 | 1007.3 |
| 20260510024954 | 13 | 270 | 4.8 | 4.8 | 0.00 | 0.18 | 0.18 | 86 | 1007.4 |
| 20260510024450 | 13 | 260 | 3.2 | 3.2 | 0.00 | 0.18 | 0.18 | 86 | 1006.9 |
| 20260510023946 | 13 | 199 | 1.6 | 3.2 | 0.00 | 0.18 | 0.18 | 86 | 1007.3 |
| 20260510023443 | 13 | 255 | 1.6 | 3.2 | 0.00 | 0.18 | 0.18 | 86 | 1007.4 |
| 20260510022940 | 13 | 233 | 1.6 | 3.2 | 0.00 | 0.18 | 0.18 | 85 | 1007.4 |
| 20260510022439 | 13 | 250 | 1.6 | 3.2 | 0.00 | 0.18 | 0.18 | 86 | 1007.1 |
| 20260510021938 | 14 | 223 | 3.2 | 3.2 | 0.00 | 0.18 | 0.18 | 85 | 1007.1 |
| 20260510021436 | 14 | 246 | 1.6 | 1.6 | 0.00 | 0.18 | 0.18 | 85 | 1007.2 |
| 20260510020932 | 14 | 260 | 3.2 | 3.2 | 0.00 | 0.18 | 0.18 | 84 | 1006.9 |
| 20260510020427 | 15 | 266 | 4.8 | 4.8 | 0.00 | 0.18 | 0.18 | 84 | 1006.7 |
| 20260510015923 | 15 | 266 | 3.2 | 3.2 | 0.00 | 0.18 | 0.18 | 84 | 1006.8 |
| 20260510015419 | 15 | 211 | 0.0 | 3.2 | 0.00 | 0.18 | 0.18 | 84 | 1006.8 |
| 20260510014914 | 15 | 276 | 3.2 | 3.2 | 0.00 | 0.18 | 0.18 | 83 | 1006.8 |
| 20260510014412 | 16 | 176 | 1.6 | 3.2 | 0.00 | 0.18 | 0.18 | 78 | 1006.4 |
| 20260510013908 | 16 | 74 | 1.6 | 3.2 | 0.00 | 0.18 | 0.18 | 75 | 1006.2 |
| 20260510013403 | 17 | 145 | 1.6 | 3.2 | 0.00 | 0.18 | 0.18 | 78 | 1006.1 |
| 20260510012858 | 16 | 187 | 1.6 | 3.2 | 0.00 | 0.18 | 0.18 | 76 | 1006.0 |
| 20260510012354 | 17 | 137 | 0.0 | 1.6 | 0.00 | 0.18 | 0.18 | 72 | 1006.0 |
| 20260510011848 | 17 | 158 | 1.6 | 8.0 | 0.00 | 0.18 | 0.18 | 74 | 1005.7 |
| 20260510011344 | 17 | 172 | 0.0 | 4.8 | 0.00 | 0.18 | 0.18 | 76 | 1005.6 |
| 20260510010840 | 17 | 187 | 3.2 | 3.2 | 0.00 | 0.18 | 0.18 | 72 | 1005.5 |
| 20260510010338 | 17 | 205 | 3.2 | 9.7 | 0.00 | 0.18 | 0.18 | 68 | 1005.2 |
| 20260510005834 | 16 | 224 | 1.6 | 4.8 | 0.00 | 0.18 | 0.18 | 75 | 1005.4 |
| 20260510005331 | 15 | 226 | 3.2 | 3.2 | 0.00 | 0.18 | 0.18 | 77 | 1005.2 |
| 20260510004829 | 15 | 120 | 0.0 | 3.2 | 0.00 | 0.18 | 0.18 | 81 | 1005.6 |
| 20260510004326 | 16 | 132 | 0.0 | 3.2 | 0.00 | 0.18 | 0.18 | 80 | 1005.6 |
| 20260510003823 | 16 | 195 | 0.0 | 3.2 | 0.00 | 0.18 | 0.18 | 77 | 1005.5 |
| 20260510003320 | 16 | 260 | 0.0 | 3.2 | 0.00 | 0.18 | 0.18 | 80 | 1005.5 |
| 20260510002819 | 16 | 283 | 1.6 | 3.2 | 0.00 | 0.18 | 0.18 | 78 | 1005.2 |
| 20260510002316 | 17 | 174 | 0.0 | 0.0 | 0.00 | 0.18 | 0.18 | 77 | 1005.3 |
| 20260510001813 | 17 | 110 | 0.0 | 0.0 | 0.00 | 0.18 | 0.18 | 73 | 1005.2 |
| 20260510001311 | 18 | 115 | 0.0 | 3.2 | 0.00 | 0.18 | 0.18 | 73 | 1005.3 |
| 20260510000806 | 17 | 211 | 1.6 | 3.2 | 0.00 | 0.18 | 0.18 | 70 | 1005.3 |
| 20260510000305 | 18 | 108 | 0.0 | 0.0 | 0.00 | 0.18 | 0.18 | 74 | 1005.3 |
| 20260509235802 | 19 | 123 | 0.0 | 1.6 | 0.00 | 0.18 | 0.18 | 63 | 1005.3 |
| 20260509235258 | 20 | 204 | 1.6 | 4.8 | 0.00 | 0.18 | 0.18 | 63 | 1005.3 |
| 20260509234754 | 20 | 242 | 4.8 | 9.7 | 0.00 | 0.18 | 0.18 | 60 | 1005.3 |
| 20260509234250 | 20 | 216 | 8.0 | 11.3 | 0.00 | 0.18 | 0.18 | 60 | 1005.0 |
| 20260509233749 | 20 | 122 | 3.2 | 4.8 | 0.00 | 0.18 | 0.18 | 60 | 1005.1 |
| 20260509233246 | 20 | 244 | 3.2 | 8.0 | 0.00 | 0.18 | 0.18 | 60 | 1005.2 |
| 20260509232742 | 20 | 289 | 9.7 | 12.9 | 0.00 | 0.18 | 0.18 | 58 | 1005.1 |
| 20260509232239 | 21 | 275 | 3.2 | 4.8 | 0.00 | 0.18 | 0.18 | 59 | 1005.0 |
| 20260509231736 | 21 | 250 | 4.8 | 8.0 | 0.00 | 0.18 | 0.18 | 59 | 1005.0 |
| 20260509231233 | 21 | 302 | 3.2 | 8.0 | 0.00 | 0.18 | 0.18 | 56 | 1004.7 |
| 20260509230730 | 21 | 211 | 3.2 | 4.8 | 0.00 | 0.18 | 0.18 | 56 | 1004.6 |
| 20260509230227 | 21 | 268 | 6.4 | 8.0 | 0.00 | 0.18 | 0.18 | 57 | 1004.5 |
| 20260509225722 | 21 | 217 | 8.0 | 16.1 | 0.00 | 0.18 | 0.18 | 58 | 1004.7 |
| 20260509225218 | 21 | 231 | 4.8 | 17.7 | 0.00 | 0.18 | 0.18 | 59 | 1004.9 |
| 20260509224714 | 22 | 199 | 0.0 | 4.8 | 0.00 | 0.18 | 0.18 | 58 | 1004.6 |
| 20260509224211 | 21 | 229 | 4.8 | 9.7 | 0.00 | 0.18 | 0.18 | 58 | 1004.5 |
| 20260509223708 | 22 | 216 | 3.2 | 4.8 | 0.00 | 0.18 | 0.18 | 59 | 1004.9 |
| 20260509223205 | 21 | 239 | 1.6 | 12.9 | 0.00 | 0.18 | 0.18 | 58 | 1004.7 |
| 20260509222702 | 22 | 289 | 9.7 | 12.9 | 0.00 | 0.18 | 0.18 | 58 | 1004.9 |
| 20260509222158 | 21 | 195 | 6.4 | 8.0 | 0.00 | 0.18 | 0.18 | 57 | 1004.8 |
| 20260509221653 | 22 | 239 | 6.4 | 9.7 | 0.00 | 0.18 | 0.18 | 58 | 1004.7 |
| 20260509221149 | 22 | 290 | 1.6 | 4.8 | 0.00 | 0.18 | 0.18 | 58 | 1004.9 |
| 20260509220646 | 21 | 199 | 4.8 | 24.1 | 0.00 | 0.18 | 0.18 | 59 | 1004.9 |
| 20260509220142 | 22 | 282 | 11.3 | 14.5 | 0.00 | 0.18 | 0.18 | 57 | 1004.9 |
| 20260509215638 | 22 | 248 | 4.8 | 11.3 | 0.00 | 0.18 | 0.18 | 56 | 1005.1 |
| 20260509215134 | 21 | 223 | 11.3 | 20.9 | 0.00 | 0.18 | 0.18 | 58 | 1005.2 |
| 20260509214632 | 22 | 256 | 8.0 | 14.5 | 0.00 | 0.18 | 0.18 | 58 | 1005.0 |
| 20260509214129 | 21 | 64 | 0.0 | 16.1 | 0.00 | 0.18 | 0.18 | 60 | 1005.0 |
| 20260509213625 | 21 | 21 | 4.8 | 11.3 | 0.00 | 0.18 | 0.18 | 60 | 1005.0 |
| 20260509213121 | 21 | 258 | 8.0 | 12.9 | 0.00 | 0.18 | 0.18 | 58 | 1005.1 |
| 20260509212620 | 21 | 134 | 0.0 | 20.9 | 0.00 | 0.18 | 0.18 | 60 | 1004.9 |
| 20260509212116 | 22 | 148 | 0.0 | 11.3 | 0.00 | 0.18 | 0.18 | 58 | 1005.0 |
| 20260509211612 | 21 | 259 | 4.8 | 14.5 | 0.00 | 0.18 | 0.18 | 61 | 1005.1 |
| 20260509211108 | 21 | 188 | 4.8 | 11.3 | 0.00 | 0.18 | 0.18 | 61 | 1005.0 |
| 20260509210605 | 21 | 199 | 3.2 | 9.7 | 0.00 | 0.18 | 0.18 | 61 | 1004.9 |
| 20260509205556 | 21 | 277 | 8.0 | 12.9 | 0.00 | 0.18 | 0.18 | 61 | 1005.2 |
| 20260509205051 | 21 | 280 | 12.9 | 16.1 | 0.00 | 0.18 | 0.18 | 60 | 1005.2 |
| 20260509204548 | 22 | 44 | 3.2 | 12.9 | 0.00 | 0.18 | 0.18 | 60 | 1005.3 |
| 20260509204045 | 21 | 190 | 1.6 | 9.7 | 0.00 | 0.18 | 0.18 | 65 | 1005.3 |
| 20260509203540 | 21 | 335 | 6.4 | 11.3 | 0.00 | 0.18 | 0.18 | 61 | 1005.2 |
| 20260509203039 | 21 | 194 | 12.9 | 20.9 | 0.00 | 0.18 | 0.18 | 59 | 1005.3 |
| 20260509202533 | 21 | 204 | 3.2 | 4.8 | 0.00 | 0.18 | 0.18 | 59 | 1005.4 |
| 20260509202029 | 21 | 197 | 0.0 | 12.9 | 0.00 | 0.18 | 0.18 | 65 | 1005.3 |
| 20260509201524 | 22 | 269 | 3.2 | 9.7 | 0.00 | 0.18 | 0.18 | 62 | 1005.5 |
| 20260509201022 | 22 | 126 | 4.8 | 17.7 | 0.00 | 0.18 | 0.18 | 61 | 1005.6 |
| 20260509200521 | 21 | 171 | 1.6 | 12.9 | 0.00 | 0.18 | 0.18 | 61 | 1005.4 |
| 20260509200018 | 21 | 38 | 1.6 | 9.7 | 0.00 | 0.18 | 0.18 | 66 | 1005.6 |
| 20260509195513 | 21 | 281 | 4.8 | 16.1 | 0.00 | 0.18 | 0.18 | 64 | 1005.9 |
| 20260509195008 | 21 | 262 | 8.0 | 9.7 | 0.00 | 0.18 | 0.18 | 62 | 1005.9 |
| 20260509194504 | 21 | 283 | 3.2 | 11.3 | 0.00 | 0.18 | 0.18 | 63 | 1006.0 |
| 20260509194001 | 21 | 119 | 1.6 | 12.9 | 0.00 | 0.18 | 0.18 | 65 | 1006.2 |
| 20260509193501 | 21 | 207 | 3.2 | 16.1 | 0.00 | 0.18 | 0.18 | 65 | 1006.0 |
| 20260509192957 | 21 | 122 | 1.6 | 8.0 | 0.00 | 0.18 | 0.18 | 66 | 1006.1 |
| 20260509192454 | 20 | 275 | 3.2 | 11.3 | 0.00 | 0.18 | 0.18 | 67 | 1006.2 |
| 20260509191949 | 20 | 324 | 4.8 | 20.9 | 0.00 | 0.18 | 0.18 | 64 | 1006.4 |
| 20260509191444 | 20 | 232 | 6.4 | 12.9 | 0.00 | 0.18 | 0.18 | 66 | 1006.3 |
| 20260509190940 | 20 | 280 | 3.2 | 17.7 | 0.00 | 0.18 | 0.18 | 67 | 1006.5 |
| 20260509190437 | 20 | 79 | 4.8 | 17.7 | 0.00 | 0.18 | 0.18 | 69 | 1006.4 |
| 20260509185935 | 20 | 5 | 6.4 | 12.9 | 0.00 | 0.18 | 0.18 | 66 | 1006.6 |
| 20260509185432 | 20 | 255 | 6.4 | 11.3 | 0.00 | 0.18 | 0.18 | 67 | 1006.6 |
| 20260509184929 | 20 | 287 | 4.8 | 8.0 | 0.00 | 0.18 | 0.18 | 68 | 1006.5 |
| 20260509184427 | 20 | 266 | 4.8 | 14.5 | 0.00 | 0.18 | 0.18 | 67 | 1006.6 |
| 20260509183923 | 19 | 329 | 4.8 | 9.7 | 0.00 | 0.18 | 0.18 | 70 | 1006.6 |
| 20260509183417 | 20 | 303 | 8.0 | 14.5 | 0.00 | 0.18 | 0.18 | 69 | 1006.5 |
| 20260509182914 | 19 | 227 | 4.8 | 11.3 | 0.00 | 0.18 | 0.18 | 71 | 1006.5 |
| 20260509182411 | 19 | 292 | 4.8 | 14.5 | 0.00 | 0.18 | 0.18 | 69 | 1006.6 |
| 20260509181908 | 19 | 238 | 8.0 | 11.3 | 0.00 | 0.18 | 0.18 | 74 | 1006.8 |
| 20260509181406 | 19 | 188 | 4.8 | 12.9 | 0.00 | 0.18 | 0.18 | 74 | 1006.8 |
| 20260509180903 | 18 | 123 | 6.4 | 12.9 | 0.00 | 0.18 | 0.18 | 74 | 1006.7 |
| 20260509180358 | 18 | 203 | 3.2 | 4.8 | 0.00 | 0.18 | 0.18 | 73 | 1006.9 |
| 20260509175855 | 18 | 38 | 3.2 | 14.5 | 0.00 | 0.18 | 0.18 | 71 | 1007.1 |
| 20260509175351 | 19 | 219 | 4.8 | 14.5 | 0.00 | 0.18 | 0.18 | 73 | 1006.9 |
| 20260509174848 | 18 | 79 | 1.6 | 4.8 | 0.00 | 0.18 | 0.18 | 75 | 1006.9 |
| 20260509174344 | 18 | 310 | 9.7 | 16.1 | 0.00 | 0.18 | 0.18 | 74 | 1007.2 |
| 20260509173840 | 18 | 224 | 1.6 | 8.0 | 0.00 | 0.18 | 0.18 | 72 | 1007.2 |
| 20260509173335 | 18 | 98 | 0.0 | 8.0 | 0.00 | 0.18 | 0.18 | 77 | 1007.2 |
| 20260509172831 | 17 | 296 | 4.8 | 8.0 | 0.00 | 0.18 | 0.18 | 77 | 1006.8 |
| 20260509172328 | 17 | 320 | 4.8 | 9.7 | 0.00 | 0.18 | 0.18 | 74 | 1007.2 |
| 20260509171824 | 18 | 296 | 8.0 | 9.7 | 0.00 | 0.18 | 0.18 | 75 | 1007.3 |
| 20260509171320 | 17 | 272 | 1.6 | 9.7 | 0.00 | 0.18 | 0.18 | 77 | 1007.1 |
| 20260509170817 | 18 | 257 | 6.4 | 11.3 | 0.00 | 0.18 | 0.18 | 76 | 1006.9 |
| 20260509170313 | 17 | 125 | 1.6 | 3.2 | 0.00 | 0.18 | 0.18 | 77 | 1007.5 |
| 20260509165812 | 17 | 228 | 0.0 | 8.0 | 0.00 | 0.18 | 0.18 | 76 | 1007.3 |
| 20260509165307 | 17 | 78 | 3.2 | 8.0 | 0.00 | 0.18 | 0.18 | 80 | 1007.2 |
| 20260509164804 | 17 | 149 | 0.0 | 8.0 | 0.00 | 0.18 | 0.18 | 82 | 1007.3 |
| 20260509164300 | 16 | 280 | 8.0 | 11.3 | 0.00 | 0.18 | 0.18 | 80 | 1007.2 |
| 20260509163756 | 16 | 61 | 1.6 | 8.0 | 0.00 | 0.18 | 0.18 | 80 | 1007.1 |
| 20260509163253 | 15 | 243 | 4.8 | 9.7 | 0.00 | 0.18 | 0.18 | 83 | 1007.4 |
| 20260509162752 | 16 | 346 | 9.7 | 16.1 | 0.00 | 0.18 | 0.18 | 81 | 1007.5 |
| 20260509162245 | 16 | 70 | 4.8 | 8.0 | 0.00 | 0.18 | 0.18 | 82 | 1007.4 |
| 20260509161742 | 15 | 9 | 1.6 | 8.0 | 0.00 | 0.18 | 0.18 | 82 | 1007.5 |
| 20260509161238 | 16 | 250 | 4.8 | 4.8 | 0.00 | 0.18 | 0.18 | 84 | 1007.4 |
| 20260509160733 | 16 | 159 | 0.0 | 1.6 | 0.00 | 0.18 | 0.18 | 83 | 1007.3 |
| 20260509160230 | 15 | 134 | 1.6 | 4.8 | 0.00 | 0.18 | 0.18 | 85 | 1007.2 |
| 20260509155724 | 15 | 121 | 0.0 | 8.0 | 0.00 | 0.18 | 0.18 | 85 | 1007.2 |
| 20260509155222 | 15 | 225 | 6.4 | 11.3 | 0.00 | 0.18 | 0.18 | 86 | 1007.2 |
| 20260509154717 | 15 | 216 | 3.2 | 9.7 | 0.00 | 0.18 | 0.18 | 86 | 1007.4 |
| 20260509154215 | 15 | 110 | 0.0 | 1.6 | 0.00 | 0.18 | 0.18 | 86 | 1007.2 |
| 20260509153712 | 15 | 39 | 1.6 | 3.2 | 0.00 | 0.18 | 0.18 | 86 | 1007.1 |
| 20260509153208 | 14 | 319 | 4.8 | 11.3 | 0.00 | 0.18 | 0.18 | 86 | 1006.9 |
| 20260509152704 | 15 | 30 | 1.6 | 8.0 | 0.00 | 0.18 | 0.18 | 86 | 1006.8 |
| 20260509152201 | 14 | 80 | 1.6 | 9.7 | 0.00 | 0.18 | 0.18 | 87 | 1006.9 |
| 20260509151658 | 14 | 230 | 3.2 | 4.8 | 0.00 | 0.18 | 0.18 | 87 | 1006.9 |
| 20260509151155 | 14 | 262 | 6.4 | 11.3 | 0.00 | 0.18 | 0.18 | 87 | 1007.1 |
| 20260509150653 | 14 | 241 | 3.2 | 4.8 | 0.00 | 0.18 | 0.18 | 87 | 1007.3 |
| 20260509150151 | 15 | 215 | 4.8 | 4.8 | 0.00 | 0.18 | 0.18 | 87 | 1007.1 |
| 20260509145647 | 14 | 128 | 1.6 | 9.7 | 0.00 | 0.18 | 0.18 | 87 | 1006.9 |
| 20260509145142 | 14 | 225 | 4.8 | 4.8 | 0.00 | 0.18 | 0.18 | 87 | 1007.1 |
| 20260509144639 | 14 | 117 | 3.2 | 12.9 | 0.00 | 0.18 | 0.18 | 88 | 1007.1 |
| 20260509144136 | 14 | 149 | 1.6 | 4.8 | 0.00 | 0.18 | 0.18 | 89 | 1006.9 |
| 20260509143633 | 15 | 190 | 1.6 | 3.2 | 0.00 | 0.18 | 0.18 | 88 | 1007.1 |
| 20260509143131 | 13 | 196 | 3.2 | 3.2 | 0.00 | 0.18 | 0.18 | 90 | 1007.1 |